Rbgn^[z[y[W
メイン
   新天体発見情報
     Comet P/2012 US27 = 2024 N5 (Siding Spring)
投稿するにはまず登録を

スレッド表示 | 新しいものから 前のトピック | 次のトピック | 下へ
投稿者 スレッド
佐藤裕久
投稿日時: 2024-7-29 0:16
モデレータ
登録日: 2005-6-12
居住地: 日本
投稿: 2559
オンライン
Comet P/2012 US27 = 2024 N5 (Siding Spring)

Martin Masekの通報によると、7月5日と6日UT、アルゼンチン MendozaのMalargueeにあるPierre Auger
天文台の、0.3-m f/6.8 反射望遠鏡("Fotometric Robotic Atmospheric Monitor")で得た、CCD画像
から、P/2012 US27(CBET 3310を参照)を検出した。 天体は恒星状に見えるが、Masekはこの彗星の頭
部を測定した。7月5日の画像では、4".7-5".2のシーイングで5".6(半値全幅:FWHM)であった。
また、Alan Haleは、7月12日、Cerro Tololo-LCO Aqawan A #1の0.35-m f/3 Cassegrainで、John 
Drummondは、7月16日、Possum天文台(E94)の0.41-m f/4.5反射望遠鏡で、それぞれ独立して検出した。
小惑星センターのNEOCP webpageに掲載され、MPEC 2024-O57に追加観測が掲載された。
佐藤英貴氏(東京都文京区, 7月25.4日UT、60-秒露出12枚のスタック, Deep Sky Chile" 0.51-m f/6.8 
アストログラフ, Rio Hurtado, チリ, 遠隔操作: 強く集光した5"のコマが見えるが尾はない。2".8の
円形範囲で測定した光度は18.5等であった。
S. Deen (Simi Valley, カリフォルニア州, 米国)は、2002年2月13.4日UT、Sloan Digital Skyサーベイ
のコースにApache Pointにある3.5-m 望遠鏡で得た公開画像から、この彗星の外観の画像を確認したと
書き込んだ。Deenは、0".9 (FWHM)の本来恒星の核状集光であるが、明らかに尾は頭部から5".5離れた、
p.a.304°に約50"伸びていることを指摘している。
NK 2665 (= ICQ's 2023 CometHandbook)の中野主一氏の予報に対し、Delta(T)は、-0.67 dayであった。
MPC 84024のG. V. Williamsの予報に対する修正値は、Delta(T) = -0.50 dayであった
彗星年表2022,2023,2024の佐藤裕久の軌道に対する修正値は、Delta(T) = -0.68 dayであった。

検出位置は次のとおり、

     2024 UT             R.A. (2000) Decl.       Mag.   Observer
     July  5.35240    2 54 48.76   -11 16 30.1   19.1   Masek
           5.35959    2 54 49.50   -11 16 24.8   19.3     "
           5.38126    2 54 51.67   -11 16 08.0   19.2     "
           5.40239    2 54 53.78   -11 15 51.2   19.2     "
           5.40960    2 54 54.52   -11 15 45.5   19.2     "
           6.37942    2 56 32.90   -11 03 15.9   19.6     "
           6.41497    2 56 36.45   -11 02 48.3   19.5     "
          11.39605    3 04 56.93   - 9 58 33.4   19.2     "
          11.41760    3 04 59.07   - 9 58 16.9   19.2     "

Deenの測定位置は次のとおり、

     2002 UT             R.A. (2000) Decl.       Mag.
     Feb. 13.44440   12 17 10.00   +58 57 09.6   21.5
          13.44523   12 17 09.91   +58 57 10.0   21.5
          13.44688   12 17 09.78   +58 57 10.3   20.7
          13.44771   12 17 09.74   +58 57 10.7   22.1

MPCの連結軌道要素、位置推算表は次のとおり、

Orbital elements:
    P/2012 US27 (Siding Spring)                                                 
Epoch 2024 Oct. 17.0 TT = JDT 2460600.5                                         
T 2024 Oct. 20.65071 TT                                 Rudenko                 
q   1.8149885            (2000.0)            P               Q                  
n   0.08395530     Peri.    0.86459     +0.64436606     -0.59509545             
a   5.1654000      Node    49.21122     +0.69775197     +0.20052106             
e   0.6486258      Incl.   39.37016     +0.31294500     +0.77823692             
P  11.7                                                                         
From 337 observations 2012 Oct. 17-2024 July 25, mean residual 1".1.            
                                                                                
    P/2012 US27 (Siding Spring)                                                 
Epoch 2013 Jan. 28.0 TT = JDT 2456320.5                                         
T 2013 Feb. 8.55503 TT                                  Rudenko                 
q   1.8208395            (2000.0)            P               Q                  
n   0.08356095     Peri.    1.26870     +0.64019852     -0.60023493             
a   5.1816387      Node    49.20674     +0.69912354     +0.19656600             
e   0.6485977      Incl.   39.29280     +0.31838991     +0.77529339             
P  11.8                                                                         
From 337 observations 2012 Oct. 17-2024 July 25, mean residual 1".1.            
                                                                                
Ephemeris:
Date    TT    R. A. (2000) Decl.     Delta      r    Elong.  Phase   m1
2024 06 26    02 38 47.8 -13 17 11   2.3768  2.1594    65.3    25.3  18.7
...
2024 07 11    03 04 17.4 -10 03 41   2.1849  2.0845    70.8    27.4  18.4
...
2024 07 19    03 17 25.7 -08 19 59   2.0814  2.0473    73.9    28.5  18.2
...
2024 07 25    03 27 02.0 -07 01 19   2.0034  2.0207    76.3    29.2  18.1
2024 07 26    03 28 36.8 -06 48 06   1.9904  2.0163    76.7    29.4  18.0
2024 07 27    03 30 11.0 -06 34 51   1.9773  2.0121    77.2    29.5  18.0
...
2024 08 02    03 39 27.5 -05 14 28   1.8989  1.9872    79.7    30.2  17.9
...
2024 08 10    03 51 21.0 -03 24 08   1.7942  1.9561    83.4    31.0  17.7
...
2024 08 25    04 11 50.4 +00 18 57   1.5988  1.9051    90.9    32.0  17.3

中野主一氏(中央局)による連結軌道要素は次のとおり、

                    Epoch = 1989 July 13.0 TT
     T = 1989 July  3.78184 TT        Peri. =   2.01673
     e = 0.6480828                    Node  =  49.21843 2000.0
     q = 1.8394203 AU                 Incl. =  39.07255
       a =  5.2268552 AU   n = 0.08247900   P =  11.95 years

                    Epoch = 2001 May  11.0 TT
     T = 2001 May   6.76063 TT        Peri. =   1.65553
     e = 0.6485331                    Node  =  49.20961 2000.0
     q = 1.8283189 AU                 Incl. =  39.19627
       a =  5.2019655 AU   n = 0.08307166   P =  11.86 years

                    Epoch = 2013 Jan. 28.0 TT
     T = 2013 Feb.  8.55790 TT        Peri. =   1.27008
     e = 0.6485996                    Node  =  49.20691 2000.0
     q = 1.8208299 AU                 Incl. =  39.29238
       a =  5.1816391 AU   n = 0.08356094   P =  11.80 years

                    Epoch = 2024 Oct. 17.0 TT
     T = 2024 Oct. 20.65464 TT        Peri. =   0.86597
     e = 0.6486278                    Node  =  49.21139 2000.0
     q = 1.8149783 AU                 Incl. =  39.36973
       a =  5.1654008 AU   n = 0.08395528   P =  11.74 years

                    Epoch = 2036 May  27.0 TT
     T = 2036 June 14.70921 TT        Peri. =   0.47686
     e = 0.6488411                    Node  =  49.22199 2000.0
     q = 1.8091809 AU                 Incl. =  39.43187
       a =  5.1520295 AU   n = 0.08428234   P =  11.69 years

                    Epoch = 2048 Jan.  5.0 TT
     T = 2048 Jan. 21.39838 TT        Peri. =   0.14974
     e = 0.6512972                    Node  =  49.20698 2000.0
     q = 1.7909369 AU                 Incl. =  39.53111
       a =  5.1359973 AU   n = 0.08467728   P =  11.64 years
     From 339 observations 2002 Feb. 13-2024 July 25, mean residual 0".5.

(MPEC 2024-O57、CBET 5422、oaa-comet 6847)

スレッド表示 | 新しいものから 前のトピック | 次のトピック | トップ

投稿するにはまず登録を
 
© 1999 Tsutomu Seki.